Powrót do katalogu

FENGYUN 1C DEB

AktywnySSO
NORAD 31727·DEBRIS·🇨🇳 China

Wystrzelony May 10, 1999 z Taiyuan Satellite Launch Center

Loading…

Następne Przeloty (najbliższe 24 godziny)

TLE

ŚwieżeSource: Space-Track

Epoka: Sep 12, 2026, 07:41 UTC

1 31727U 99025CEA 26255.32062947  .00003406  00000-0  10853-2 0  9990
2 31727  98.8767  21.5511 0030254 247.2428 142.1010 14.40221296756036

Śledź FENGYUN 1C DEB w czasie rzeczywistym z AllMySat

Download on the App Store